Total_Precipitation_Accumulation
0.01 0.01 0.04 0.05 0.05 0.08 0.10 0.13 0.13 0.13 0.13 0.17 0.19 0.19 0.22 0.17 0.10 0.10 0.13 0.12 0.12 0.12 0.13 0.09 0.09 0.06 0.07 0.08 0.07 0.07 0.06 0.08 0.09 0.09 0.08 0.06 0.05 0.05 0.03 0.05 0.05 0.08 0.16 0.22 0.22 0.29 0.31 0.35 0.35 0.40 0.44 0.42 0.44 0.44 1.00 0.95 0.95 0.74 0.57 0.48 0.48 0.55 0.57 0.62 0.62 0.63 0.70 0.59 0.55 0.55 0.36 0.31 0.29 0.29 0.26 0.28 0.29 0.29 0.26 0.13 0.13 0.07 0.03 0.05 0.05 0.02
0.00 0.00 0.03 0.05 0.05 0.07 0.10 0.13 0.15 0.15 0.14 0.16 0.19 0.19 0.25 0.23 0.14 0.14 0.17 0.10 0.10 0.11 0.14 0.12 0.12 0.09 0.09 0.10 0.09 0.09 0.08 0.07 0.07 0.07 0.09 0.07 0.06 0.06 0.05 0.07 0.07 0.06 0.07 0.08 0.08 0.25 0.31 0.38 0.38 0.45 0.52 0.46 0.50 0.50 0.69 1.05 1.05 1.02 0.90 0.56 0.56 0.64 0.60 0.58 0.58 0.62 0.71 0.61 0.64 0.64 0.59 0.46 0.33 0.33 0.33 0.30 0.33 0.33 0.31 0.16 0.16 0.08 0.06 0.08 0.08 0.05
0.00 0.01 0.01 0.05 0.05 0.07 0.10 0.13 0.14 0.14 0.14 0.11 0.11 0.11 0.24 0.25 0.22 0.22 0.22 0.11 0.11 0.09 0.09 0.15 0.15 0.13 0.12 0.10 0.09 0.09 0.08 0.07 0.06 0.06 0.07 0.06 0.07 0.07 0.06 0.07 0.07 0.06 0.09 0.11 0.11 0.14 0.18 0.21 0.21 0.35 0.51 0.56 0.52 0.52 0.70 0.97 0.97 1.13 0.95 0.78 0.78 0.86 0.76 0.65 0.65 0.65 0.75 0.75 0.61 0.61 0.59 0.48 0.43 0.43 0.37 0.32 0.29 0.29 0.35 0.35 0.35 0.21 0.10 0.12 0.12 0.05
0.00 0.01 0.07 0.08 0.08 0.06 0.10 0.14 0.17 0.17 0.16 0.10 0.09 0.09 0.16 0.24 0.27 0.27 0.22 0.14 0.14 0.09 0.10 0.17 0.17 0.21 0.15 0.10 0.09 0.09 0.08 0.07 0.07 0.07 0.06 0.07 0.07 0.07 0.07 0.07 0.07 0.08 0.07 0.09 0.09 0.12 0.17 0.18 0.18 0.29 0.42 0.52 0.60 0.60 0.65 0.99 0.99 1.13 1.04 0.87 0.87 0.91 0.93 0.95 0.95 0.94 0.73 0.73 0.82 0.82 0.67 0.50 0.44 0.44 0.42 0.39 0.31 0.31 0.38 0.40 0.40 0.29 0.13 0.15 0.15 0.12
0.02 0.03 0.04 0.10 0.10 0.11 0.08 0.13 0.19 0.19 0.18 0.10 0.10 0.10 0.13 0.22 0.30 0.30 0.27 0.12 0.12 0.09 0.14 0.23 0.23 0.22 0.16 0.12 0.11 0.11 0.09 0.07 0.06 0.06 0.07 0.07 0.07 0.07 0.08 0.08 0.08 0.07 0.07 0.07 0.07 0.10 0.14 0.14 0.14 0.26 0.36 0.46 0.58 0.58 0.49 0.64 0.64 0.86 0.95 1.02 1.02 0.91 0.98 0.98 0.98 0.94 0.87 0.78 0.83 0.83 0.81 0.64 0.60 0.60 0.46 0.41 0.40 0.40 0.42 0.44 0.44 0.33 0.20 0.15 0.15 0.07
0.01 0.01 0.02 0.06 0.06 0.08 0.12 0.11 0.14 0.14 0.18 0.14 0.13 0.13 0.11 0.19 0.25 0.25 0.28 0.20 0.20 0.13 0.16 0.20 0.20 0.19 0.14 0.14 0.11 0.11 0.11 0.09 0.07 0.07 0.07 0.06 0.06 0.06 0.07 0.06 0.06 0.06 0.06 0.05 0.05 0.06 0.08 0.10 0.10 0.10 0.30 0.43 0.52 0.52 0.49 0.64 0.64 0.86 0.93 0.90 0.90 1.02 1.06 1.09 1.09 1.04 1.02 0.86 0.88 0.88 0.84 0.65 0.57 0.57 0.49 0.46 0.40 0.40 0.39 0.48 0.48 0.47 0.34 0.24 0.24 0.15
0.02 0.00 0.00 0.02 0.02 0.05 0.09 0.08 0.14 0.14 0.20 0.20 0.23 0.23 0.15 0.18 0.24 0.24 0.24 0.20 0.20 0.13 0.17 0.17 0.17 0.17 0.10 0.14 0.14 0.14 0.12 0.12 0.10 0.10 0.09 0.08 0.09 0.09 0.07 0.07 0.07 0.05 0.05 0.05 0.05 0.07 0.07 0.09 0.09 0.11 0.14 0.23 0.37 0.37 0.43 0.61 0.61 0.77 0.84 0.89 0.89 0.94 1.02 1.01 1.01 0.90 0.97 0.99 0.95 0.95 0.96 0.84 0.75 0.75 0.66 0.70 0.44 0.44 0.42 0.45 0.45 0.47 0.38 0.21 0.21 0.12
0.06 0.02 0.03 0.02 0.02 0.04 0.06 0.11 0.17 0.17 0.19 0.22 0.24 0.24 0.28 0.31 0.37 0.37 0.35 0.35 0.35 0.24 0.17 0.19 0.19 0.15 0.11 0.08 0.08 0.08 0.12 0.11 0.15 0.15 0.14 0.10 0.08 0.08 0.06 0.05 0.05 0.04 0.04 0.05 0.05 0.07 0.06 0.09 0.09 0.08 0.11 0.15 0.26 0.26 0.35 0.49 0.49 0.59 0.62 0.68 0.68 0.80 0.91 0.90 0.90 0.89 0.80 0.74 0.75 0.75 0.81 0.91 0.87 0.87 0.87 0.86 0.81 0.81 0.69 0.64 0.64 0.55 0.55 0.41 0.41 0.29
0.06 0.04 0.04 0.03 0.03 0.05 0.06 0.14 0.23 0.23 0.25 0.23 0.21 0.21 0.24 0.32 0.41 0.41 0.43 0.35 0.35 0.28 0.22 0.18 0.18 0.15 0.11 0.07 0.08 0.08 0.07 0.10 0.13 0.13 0.13 0.11 0.09 0.09 0.07 0.06 0.06 0.06 0.05 0.04 0.04 0.06 0.08 0.09 0.09 0.08 0.09 0.13 0.17 0.17 0.21 0.29 0.29 0.45 0.60 0.68 0.68 0.86 0.96 0.95 0.95 0.91 0.79 0.77 0.81 0.81 0.88 0.82 0.81 0.81 0.89 0.78 0.82 0.82 0.81 0.73 0.73 0.68 0.72 0.47 0.47 0.42
0.07 0.05 0.05 0.05 0.05 0.05 0.07 0.14 0.26 0.26 0.31 0.29 0.32 0.32 0.20 0.31 0.42 0.42 0.47 0.37 0.37 0.27 0.24 0.20 0.20 0.16 0.13 0.12 0.08 0.08 0.09 0.12 0.13 0.13 0.13 0.10 0.08 0.08 0.07 0.07 0.07 0.07 0.08 0.07 0.07 0.05 0.07 0.08 0.08 0.10 0.11 0.14 0.20 0.20 0.25 0.27 0.27 0.46 0.50 0.60 0.60 0.62 0.68 0.84 0.84 0.82 0.79 0.75 0.89 0.89 0.90 0.82 0.75 0.75 0.74 0.76 0.78 0.78 0.76 0.76 0.76 0.72 0.79 0.65 0.65 0.62
0.12 0.06 0.08 0.08 0.08 0.08 0.08 0.14 0.23 0.23 0.33 0.37 0.40 0.40 0.33 0.22 0.31 0.31 0.40 0.43 0.43 0.29 0.23 0.20 0.20 0.15 0.11 0.12 0.14 0.14 0.10 0.09 0.12 0.12 0.15 0.12 0.09 0.09 0.07 0.07 0.07 0.07 0.06 0.07 0.07 0.06 0.06 0.05 0.05 0.07 0.10 0.16 0.20 0.20 0.22 0.30 0.30 0.46 0.47 0.54 0.54 0.56 0.63 0.75 0.75 0.82 0.75 0.78 0.93 0.93 0.89 0.87 0.84 0.84 0.72 0.66 0.71 0.71 0.70 0.76 0.76 0.80 0.89 0.77 0.77 0.70
0.14 0.11 0.09 0.09 0.09 0.10 0.13 0.17 0.20 0.20 0.29 0.43 0.43 0.43 0.36 0.33 0.45 0.45 0.40 0.44 0.44 0.42 0.34 0.21 0.21 0.16 0.17 0.13 0.12 0.12 0.10 0.08 0.10 0.10 0.13 0.13 0.11 0.11 0.10 0.10 0.10 0.08 0.07 0.10 0.10 0.09 0.06 0.06 0.06 0.07 0.08 0.11 0.14 0.14 0.18 0.18 0.18 0.27 0.30 0.52 0.52 0.57 0.61 0.67 0.67 0.81 0.85 0.88 0.97 0.97 0.88 0.85 0.79 0.79 0.71 0.66 0.66 0.66 0.65 0.66 0.66 0.74 0.87 0.96 0.96 1.00
0.08 0.07 0.07 0.07 0.07 0.08 0.11 0.18 0.24 0.24 0.25 0.26 0.35 0.35 0.40 0.40 0.49 0.49 0.46 0.40 0.40 0.35 0.35 0.32 0.32 0.21 0.19 0.19 0.11 0.11 0.09 0.09 0.09 0.09 0.11 0.13 0.13 0.13 0.10 0.10 0.10 0.10 0.09 0.10 0.10 0.11 0.07 0.08 0.08 0.07 0.10 0.11 0.13 0.13 0.15 0.16 0.16 0.19 0.24 0.37 0.37 0.42 0.47 0.56 0.56 0.66 0.63 0.74 0.82 0.82 0.81 0.80 0.70 0.70 0.67 0.61 0.62 0.62 0.61 0.63 0.63 0.70 0.83 0.99 0.99 1.00
0.11 0.12 0.07 0.07 0.07 0.06 0.08 0.15 0.21 0.21 0.27 0.28 0.30 0.30 0.28 0.34 0.43 0.43 0.52 0.48 0.48 0.36 0.43 0.33 0.33 0.24 0.22 0.21 0.18 0.18 0.15 0.12 0.09 0.09 0.09 0.14 0.13 0.13 0.10 0.09 0.09 0.09 0.09 0.11 0.11 0.13 0.12 0.08 0.08 0.11 0.10 0.07 0.13 0.13 0.14 0.14 0.14 0.17 0.19 0.30 0.30 0.36 0.41 0.49 0.49 0.57 0.53 0.71 0.74 0.74 0.73 0.70 0.62 0.62 0.64 0.56 0.53 0.53 0.53 0.50 0.50 0.58 0.60 0.75 0.75 0.91
0.14 0.12 0.10 0.07 0.07 0.06 0.07 0.14 0.19 0.19 0.24 0.25 0.31 0.31 0.34 0.37 0.42 0.42 0.48 0.55 0.55 0.48 0.53 0.40 0.40 0.27 0.24 0.20 0.19 0.19 0.18 0.13 0.10 0.10 0.10 0.16 0.13 0.13 0.11 0.10 0.10 0.09 0.09 0.12 0.12 0.15 0.11 0.09 0.09 0.10 0.11 0.07 0.08 0.08 0.11 0.11 0.11 0.13 0.13 0.17 0.17 0.25 0.32 0.45 0.45 0.49 0.52 0.65 0.57 0.57 0.62 0.59 0.50 0.50 0.54 0.49 0.50 0.50 0.44 0.43 0.43 0.50 0.55 0.72 0.72 0.87
0.15 0.14 0.10 0.07 0.07 0.06 0.07 0.10 0.15 0.15 0.31 0.35 0.31 0.31 0.40 0.38 0.57 0.57 0.60 0.58 0.58 0.63 0.64 0.61 0.61 0.51 0.30 0.20 0.19 0.19 0.17 0.18 0.13 0.13 0.11 0.15 0.13 0.13 0.09 0.08 0.08 0.11 0.11 0.11 0.11 0.12 0.12 0.12 0.12 0.10 0.10 0.07 0.06 0.06 0.07 0.07 0.07 0.09 0.12 0.15 0.15 0.21 0.30 0.43 0.43 0.45 0.50 0.49 0.44 0.44 0.50 0.53 0.47 0.47 0.42 0.34 0.38 0.38 0.42 0.38 0.38 0.42 0.50 0.66 0.66 0.81
0.24 0.35 0.24 0.16 0.16 0.11 0.25 0.23 0.23 0.23 0.27 0.39 0.37 0.37 0.42 0.47 0.68 0.68 0.66 0.65 0.65 0.71 0.59 0.62 0.62 0.60 0.40 0.39 0.24 0.24 0.15 0.16 0.15 0.15 0.11 0.16 0.14 0.14 0.10 0.09 0.09 0.09 0.13 0.12 0.12 0.13 0.13 0.14 0.14 0.13 0.12 0.09 0.06 0.06 0.05 0.08 0.08 0.09 0.12 0.15 0.15 0.19 0.32 0.43 0.43 0.49 0.47 0.44 0.40 0.40 0.44 0.47 0.44 0.44 0.41 0.34 0.30 0.30 0.35 0.32 0.32 0.31 0.29 0.40 0.40 0.51
0.41 0.40 0.28 0.24 0.24 0.22 0.22 0.24 0.29 0.29 0.31 0.38 0.46 0.46 0.46 0.50 0.63 0.63 0.70 0.64 0.64 0.62 0.55 0.63 0.63 0.53 0.34 0.38 0.27 0.27 0.16 0.14 0.16 0.16 0.14 0.19 0.20 0.20 0.12 0.12 0.12 0.10 0.13 0.15 0.15 0.14 0.14 0.14 0.14 0.12 0.11 0.07 0.07 0.07 0.05 0.07 0.07 0.08 0.09 0.13 0.13 0.14 0.18 0.39 0.39 0.47 0.46 0.40 0.40 0.40 0.41 0.44 0.46 0.46 0.42 0.32 0.29 0.29 0.31 0.27 0.27 0.28 0.23 0.26 0.26 0.37
0.40 0.37 0.37 0.32 0.32 0.25 0.19 0.21 0.25 0.25 0.30 0.30 0.49 0.49 0.59 0.63 0.72 0.72 0.60 0.60 0.60 0.58 0.37 0.55 0.55 0.44 0.25 0.27 0.28 0.28 0.18 0.14 0.15 0.15 0.15 0.21 0.23 0.23 0.16 0.15 0.15 0.13 0.12 0.17 0.17 0.18 0.15 0.16 0.16 0.12 0.10 0.07 0.06 0.06 0.06 0.07 0.07 0.08 0.09 0.12 0.12 0.12 0.19 0.32 0.32 0.43 0.41 0.43 0.40 0.40 0.36 0.38 0.39 0.39 0.46 0.46 0.39 0.39 0.30 0.24 0.24 0.19 0.22 0.17 0.17 0.17
0.33 0.27 0.30 0.30 0.30 0.23 0.19 0.16 0.16 0.16 0.29 0.29 0.44 0.44 0.59 0.69 0.78 0.78 0.66 0.65 0.65 0.49 0.36 0.41 0.41 0.43 0.39 0.31 0.29 0.29 0.21 0.19 0.15 0.15 0.16 0.21 0.23 0.23 0.18 0.15 0.15 0.13 0.14 0.17 0.17 0.18 0.15 0.15 0.15 0.15 0.11 0.08 0.06 0.06 0.08 0.07 0.07 0.08 0.10 0.10 0.10 0.11 0.14 0.23 0.23 0.32 0.34 0.41 0.42 0.42 0.39 0.37 0.38 0.38 0.47 0.50 0.41 0.41 0.31 0.24 0.24 0.18 0.17 0.15 0.15 0.11
0.29 0.27 0.29 0.28 0.28 0.25 0.21 0.18 0.17 0.17 0.19 0.26 0.30 0.30 0.49 0.72 0.78 0.78 0.70 0.61 0.61 0.46 0.41 0.36 0.36 0.35 0.46 0.44 0.32 0.32 0.31 0.34 0.23 0.23 0.17 0.23 0.23 0.23 0.19 0.15 0.15 0.12 0.15 0.18 0.18 0.17 0.16 0.15 0.15 0.14 0.12 0.07 0.06 0.06 0.08 0.09 0.09 0.09 0.09 0.10 0.10 0.09 0.12 0.13 0.13 0.18 0.15 0.26 0.37 0.37 0.39 0.41 0.41 0.41 0.36 0.43 0.41 0.41 0.42 0.25 0.25 0.20 0.18 0.11 0.11 0.11
0.42 0.30 0.27 0.27 0.27 0.25 0.23 0.20 0.17 0.17 0.19 0.27 0.35 0.35 0.40 0.60 0.80 0.80 0.78 0.70 0.70 0.52 0.42 0.42 0.42 0.39 0.54 0.50 0.42 0.42 0.40 0.41 0.30 0.30 0.23 0.24 0.27 0.27 0.24 0.19 0.19 0.14 0.12 0.18 0.18 0.20 0.16 0.17 0.17 0.16 0.12 0.08 0.06 0.06 0.08 0.09 0.09 0.11 0.09 0.11 0.11 0.11 0.12 0.11 0.11 0.14 0.11 0.16 0.26 0.26 0.28 0.38 0.35 0.35 0.36 0.39 0.35 0.35 0.36 0.30 0.30 0.25 0.21 0.18 0.18 0.11
0.49 0.44 0.35 0.27 0.27 0.25 0.24 0.23 0.20 0.20 0.20 0.28 0.36 0.36 0.43 0.65 0.73 0.73 0.85 0.86 0.86 0.79 0.69 0.45 0.45 0.45 0.56 0.54 0.50 0.50 0.49 0.46 0.34 0.34 0.24 0.26 0.31 0.31 0.27 0.17 0.17 0.16 0.15 0.18 0.18 0.20 0.18 0.18 0.18 0.20 0.19 0.14 0.09 0.09 0.08 0.09 0.09 0.11 0.11 0.12 0.12 0.13 0.13 0.12 0.12 0.12 0.10 0.14 0.17 0.17 0.21 0.31 0.28 0.28 0.31 0.31 0.26 0.26 0.30 0.30 0.30 0.25 0.21 0.20 0.20 0.14
0.68 0.61 0.42 0.30 0.30 0.28 0.32 0.28 0.25 0.25 0.23 0.29 0.35 0.35 0.44 0.57 0.61 0.61 0.75 0.75 0.75 0.75 0.73 0.46 0.46 0.46 0.46 0.60 0.64 0.64 0.61 0.54 0.52 0.52 0.40 0.31 0.35 0.35 0.27 0.17 0.17 0.23 0.23 0.18 0.18 0.17 0.18 0.24 0.24 0.24 0.22 0.16 0.11 0.11 0.09 0.11 0.11 0.11 0.11 0.12 0.12 0.12 0.10 0.10 0.10 0.10 0.07 0.08 0.11 0.11 0.10 0.15 0.23 0.23 0.21 0.26 0.24 0.24 0.22 0.27 0.27 0.24 0.23 0.20 0.20 0.17
0.66 0.78 0.56 0.40 0.40 0.35 0.36 0.31 0.30 0.30 0.31 0.33 0.32 0.32 0.38 0.55 0.68 0.68 0.63 0.61 0.61 0.76 0.79 0.49 0.49 0.45 0.61 0.81 0.73 0.73 0.68 0.60 0.58 0.58 0.41 0.33 0.34 0.34 0.27 0.16 0.16 0.19 0.30 0.32 0.32 0.17 0.22 0.31 0.31 0.28 0.26 0.22 0.13 0.13 0.11 0.13 0.13 0.11 0.10 0.11 0.11 0.11 0.10 0.09 0.09 0.09 0.07 0.07 0.08 0.08 0.07 0.11 0.16 0.16 0.16 0.20 0.23 0.23 0.22 0.21 0.21 0.15 0.18 0.14 0.14 0.13
0.59 0.73 0.74 0.52 0.52 0.41 0.35 0.33 0.33 0.33 0.36 0.36 0.35 0.35 0.37 0.49 0.74 0.74 0.92 0.73 0.73 0.81 0.80 0.54 0.54 0.45 0.67 0.89 0.80 0.80 0.72 0.57 0.53 0.53 0.41 0.36 0.33 0.33 0.21 0.21 0.21 0.23 0.34 0.34 0.34 0.20 0.20 0.34 0.34 0.37 0.32 0.36 0.25 0.25 0.16 0.13 0.13 0.14 0.13 0.12 0.12 0.11 0.12 0.10 0.10 0.09 0.07 0.08 0.08 0.08 0.07 0.05 0.08 0.08 0.07 0.12 0.13 0.13 0.16 0.22 0.22 0.20 0.16 0.17 0.17 0.13
0.37 0.49 0.62 0.57 0.57 0.43 0.38 0.32 0.32 0.32 0.35 0.35 0.36 0.36 0.36 0.51 0.69 0.69 0.99 0.98 0.98 1.03 0.86 0.81 0.81 0.65 0.62 0.58 0.73 0.73 0.84 0.59 0.51 0.51 0.39 0.32 0.33 0.33 0.22 0.22 0.22 0.26 0.36 0.35 0.35 0.24 0.25 0.39 0.39 0.41 0.38 0.37 0.29 0.29 0.17 0.15 0.15 0.14 0.14 0.11 0.11 0.11 0.11 0.09 0.09 0.08 0.06 0.07 0.07 0.07 0.06 0.06 0.06 0.06 0.05 0.08 0.08 0.08 0.13 0.17 0.17 0.15 0.18 0.16 0.16 0.16
0.31 0.41 0.53 0.66 0.66 0.69 0.60 0.47 0.37 0.37 0.37 0.37 0.37 0.37 0.37 0.47 0.65 0.65 0.92 0.98 0.98 1.09 0.77 0.69 0.69 0.71 0.53 0.52 0.68 0.68 0.91 0.77 0.66 0.66 0.56 0.40 0.34 0.34 0.37 0.23 0.23 0.16 0.21 0.32 0.32 0.38 0.30 0.44 0.44 0.42 0.40 0.36 0.31 0.31 0.20 0.17 0.17 0.16 0.12 0.12 0.12 0.11 0.11 0.10 0.10 0.08 0.06 0.06 0.06 0.06 0.04 0.05 0.06 0.06 0.05 0.06 0.05 0.05 0.09 0.11 0.11 0.10 0.14 0.14 0.14 0.14
0.25 0.34 0.45 0.58 0.58 0.63 0.66 0.55 0.44 0.44 0.41 0.44 0.41 0.41 0.39 0.39 0.63 0.63 0.93 0.98 0.98 0.99 0.73 0.62 0.62 0.58 0.44 0.56 0.80 0.80 0.87 0.75 0.76 0.76 0.67 0.43 0.37 0.37 0.40 0.18 0.18 0.12 0.15 0.28 0.28 0.40 0.34 0.45 0.45 0.49 0.45 0.37 0.34 0.34 0.32 0.25 0.25 0.19 0.18 0.17 0.17 0.13 0.12 0.11 0.11 0.10 0.08 0.06 0.06 0.06 0.04 0.04 0.04 0.04 0.03 0.05 0.04 0.04 0.04 0.05 0.05 0.06 0.08 0.11 0.11 0.11
0.21 0.26 0.36 0.49 0.49 0.55 0.69 0.66 0.49 0.49 0.48 0.47 0.44 0.44 0.41 0.42 0.48 0.48 0.68 0.94 0.94 0.82 0.93 0.88 0.88 0.71 0.49 0.69 0.93 0.93 0.85 0.82 0.86 0.86 0.74 0.48 0.40 0.40 0.35 0.16 0.16 0.09 0.12 0.21 0.21 0.43 0.46 0.56 0.56 0.54 0.47 0.36 0.33 0.33 0.32 0.26 0.26 0.22 0.20 0.19 0.19 0.15 0.12 0.11 0.11 0.11 0.09 0.06 0.05 0.05 0.05 0.04 0.04 0.04 0.03 0.03 0.04 0.04 0.03 0.04 0.04 0.04 0.07 0.09 0.09 0.10
0.17 0.20 0.31 0.41 0.41 0.48 0.64 0.74 0.57 0.57 0.50 0.48 0.46 0.46 0.43 0.47 0.53 0.53 0.67 0.85 0.85 0.75 1.00 1.03 1.03 0.79 0.60 0.58 0.78 0.78 0.93 1.02 0.94 0.94 0.91 0.80 0.47 0.47 0.35 0.21 0.21 0.16 0.08 0.02 0.02 0.14 0.61 0.65 0.65 0.52 0.43 0.33 0.32 0.32 0.30 0.25 0.25 0.22 0.22 0.21 0.21 0.17 0.13 0.12 0.12 0.10 0.09 0.07 0.05 0.05 0.05 0.05 0.03 0.03 0.04 0.05 0.05 0.05 0.04 0.03 0.03 0.03 0.04 0.06 0.06 0.10
0.12 0.15 0.18 0.23 0.23 0.26 0.37 0.51 0.68 0.68 0.68 0.52 0.49 0.49 0.52 0.51 0.53 0.53 0.61 0.63 0.63 0.84 0.85 1.01 1.01 1.16 0.77 0.45 0.45 0.45 0.68 0.86 0.77 0.77 0.74 0.85 0.34 0.34 0.14 0.12 0.12 0.14 0.11 0.09 0.09 0.03 0.17 0.35 0.35 0.54 0.45 0.31 0.29 0.29 0.30 0.26 0.26 0.22 0.19 0.18 0.18 0.20 0.17 0.12 0.12 0.11 0.11 0.10 0.08 0.08 0.06 0.04 0.04 0.04 0.04 0.03 0.03 0.03 0.02 0.03 0.03 0.02 0.04 0.07 0.07 0.08
0.11 0.15 0.17 0.20 0.20 0.23 0.32 0.44 0.61 0.61 0.70 0.54 0.52 0.52 0.54 0.54 0.52 0.52 0.61 0.64 0.64 0.70 0.77 0.72 0.72 0.75 0.76 0.64 0.44 0.44 0.46 0.58 0.62 0.62 0.65 0.66 0.76 0.76 0.33 0.16 0.16 0.14 0.13 0.13 0.13 0.10 0.13 0.25 0.25 0.41 0.38 0.31 0.27 0.27 0.28 0.25 0.25 0.21 0.18 0.16 0.16 0.16 0.18 0.12 0.12 0.11 0.11 0.09 0.11 0.11 0.09 0.06 0.04 0.04 0.03 0.03 0.02 0.02 0.02 0.02 0.02 0.01 0.02 0.03 0.03 0.03
0.10 0.14 0.17 0.20 0.20 0.22 0.28 0.38 0.54 0.54 0.68 0.55 0.48 0.48 0.53 0.57 0.56 0.56 0.63 0.66 0.66 0.67 0.74 0.71 0.71 0.70 0.73 0.68 0.55 0.55 0.54 0.60 0.67 0.67 0.69 0.65 0.69 0.69 0.28 0.15 0.15 0.14 0.11 0.11 0.11 0.15 0.15 0.21 0.21 0.22 0.33 0.34 0.29 0.29 0.24 0.27 0.27 0.23 0.19 0.14 0.14 0.15 0.14 0.10 0.10 0.10 0.10 0.07 0.09 0.09 0.09 0.06 0.04 0.04 0.03 0.03 0.02 0.02 0.02 0.01 0.01 0.01 0.02 0.02 0.02 0.01
0.06 0.09 0.13 0.16 0.16 0.18 0.21 0.25 0.48 0.48 0.64 0.63 0.49 0.49 0.52 0.59 0.62 0.62 0.69 0.68 0.68 0.70 0.74 0.72 0.72 0.67 0.67 0.64 0.59 0.59 0.57 0.72 0.91 0.91 0.76 0.62 0.64 0.64 0.25 0.13 0.13 0.11 0.09 0.07 0.07 0.12 0.19 0.21 0.21 0.19 0.25 0.34 0.30 0.30 0.24 0.24 0.24 0.20 0.17 0.14 0.14 0.15 0.12 0.08 0.08 0.08 0.07 0.05 0.06 0.06 0.07 0.04 0.04 0.04 0.03 0.02 0.02 0.02 0.02 0.01 0.01 0.01 0.01 0.01 0.01 0.00
0.05 0.08 0.12 0.15 0.15 0.17 0.20 0.24 0.32 0.32 0.40 0.58 0.59 0.59 0.50 0.50 0.57 0.57 0.62 0.72 0.72 0.74 0.70 0.78 0.78 0.78 0.73 0.65 0.56 0.56 0.57 0.74 0.93 0.93 0.78 0.60 0.65 0.65 0.25 0.10 0.10 0.09 0.07 0.05 0.05 0.07 0.15 0.20 0.20 0.16 0.19 0.19 0.22 0.22 0.30 0.24 0.24 0.17 0.16 0.18 0.18 0.17 0.15 0.11 0.11 0.08 0.06 0.04 0.04 0.04 0.04 0.03 0.04 0.04 0.03 0.02 0.02 0.02 0.01 0.01 0.01 0.01 0.00 0.00 0.00 0.00
0.04 0.07 0.10 0.14 0.14 0.16 0.19 0.22 0.29 0.29 0.36 0.54 0.61 0.61 0.52 0.52 0.56 0.56 0.60 0.75 0.75 0.75 0.70 0.76 0.76 0.76 0.79 0.71 0.61 0.61 0.63 0.59 0.66 0.66 0.83 0.69 0.56 0.56 0.53 0.19 0.19 0.08 0.06 0.04 0.04 0.03 0.05 0.10 0.10 0.14 0.14 0.16 0.19 0.19 0.27 0.23 0.23 0.18 0.21 0.22 0.22 0.18 0.14 0.10 0.10 0.09 0.06 0.05 0.03 0.03 0.02 0.02 0.02 0.02 0.02 0.01 0.01 0.01 0.00 0.00 0.00 0.01 0.00 0.00 0.00 0.00
0.03 0.05 0.08 0.12 0.12 0.15 0.18 0.20 0.26 0.26 0.33 0.49 0.65 0.65 0.52 0.47 0.51 0.51 0.59 0.72 0.72 0.76 0.71 0.72 0.72 0.77 0.79 0.83 0.72 0.72 0.71 0.61 0.64 0.64 0.79 0.67 0.51 0.51 0.40 0.20 0.20 0.09 0.06 0.04 0.04 0.01 0.02 0.07 0.07 0.10 0.13 0.14 0.18 0.18 0.19 0.19 0.19 0.17 0.20 0.25 0.25 0.17 0.13 0.09 0.09 0.08 0.08 0.06 0.03 0.03 0.03 0.02 0.01 0.01 0.01 0.03 0.01 0.01 0.01 0.00 0.00 0.00 0.00 0.00 0.00 0.00
0.01 0.03 0.04 0.07 0.07 0.10 0.14 0.20 0.24 0.24 0.28 0.40 0.60 0.60 0.52 0.41 0.44 0.44 0.53 0.69 0.69 0.69 0.72 0.74 0.74 0.77 0.82 0.85 0.82 0.82 0.72 0.65 0.71 0.71 0.84 0.65 0.49 0.49 0.35 0.24 0.24 0.12 0.09 0.08 0.08 0.02 0.01 0.03 0.03 0.06 0.06 0.12 0.18 0.18 0.18 0.15 0.15 0.14 0.15 0.20 0.20 0.19 0.19 0.12 0.12 0.10 0.07 0.07 0.08 0.08 0.03 0.02 0.01 0.01 0.01 0.02 0.02 0.02 0.01 0.00 0.00 0.00 0.00 0.00 0.00 0.00
0.01 0.02 0.03 0.04 0.04 0.07 0.12 0.16 0.18 0.18 0.17 0.23 0.32 0.32 0.46 0.45 0.41 0.41 0.39 0.48 0.48 0.54 0.60 0.65 0.65 0.69 0.71 0.79 0.84 0.84 0.77 0.73 0.69 0.69 0.75 0.76 0.64 0.64 0.49 0.42 0.42 0.28 0.15 0.14 0.14 0.09 0.03 0.01 0.01 0.02 0.03 0.09 0.13 0.13 0.19 0.18 0.18 0.16 0.16 0.19 0.19 0.19 0.22 0.16 0.16 0.11 0.06 0.05 0.07 0.07 0.06 0.04 0.01 0.01 0.01 0.01 0.02 0.02 0.01 0.02 0.02 0.01 0.00 0.00 0.00 0.00
0.01 0.01 0.02 0.03 0.03 0.06 0.09 0.11 0.15 0.15 0.15 0.21 0.28 0.28 0.39 0.44 0.43 0.43 0.39 0.44 0.44 0.54 0.58 0.60 0.60 0.62 0.70 0.75 0.82 0.82 0.78 0.74 0.73 0.73 0.74 0.73 0.65 0.65 0.52 0.48 0.48 0.33 0.18 0.13 0.13 0.09 0.05 0.03 0.03 0.03 0.05 0.07 0.13 0.13 0.18 0.19 0.19 0.17 0.14 0.15 0.15 0.15 0.19 0.18 0.18 0.11 0.11 0.07 0.05 0.05 0.05 0.05 0.04 0.04 0.02 0.00 0.00 0.00 0.01 0.01 0.01 0.01 0.00 0.00 0.00 0.00
0.00 0.01 0.02 0.02 0.02 0.05 0.07 0.09 0.13 0.13 0.14 0.18 0.26 0.26 0.35 0.37 0.41 0.41 0.41 0.47 0.47 0.56 0.59 0.62 0.62 0.66 0.76 0.81 0.84 0.84 0.83 0.78 0.72 0.72 0.72 0.67 0.65 0.65 0.57 0.55 0.55 0.38 0.22 0.13 0.13 0.11 0.06 0.04 0.04 0.03 0.03 0.04 0.07 0.07 0.15 0.22 0.22 0.19 0.14 0.12 0.12 0.11 0.14 0.13 0.13 0.10 0.12 0.07 0.04 0.04 0.03 0.03 0.03 0.03 0.01 0.00 0.00 0.00 0.00 0.00 0.00 0.00 0.00 0.00 0.00 0.00
0.00 0.01 0.01 0.02 0.02 0.03 0.06 0.09 0.12 0.12 0.14 0.17 0.23 0.23 0.30 0.31 0.37 0.37 0.41 0.47 0.47 0.54 0.59 0.59 0.59 0.62 0.59 0.70 0.86 0.86 0.96 0.90 0.78 0.78 0.72 0.71 0.66 0.66 0.65 0.63 0.63 0.59 0.43 0.25 0.25 0.21 0.14 0.08 0.08 0.08 0.05 0.03 0.06 0.06 0.11 0.20 0.20 0.16 0.12 0.09 0.09 0.08 0.11 0.10 0.10 0.09 0.09 0.07 0.03 0.03 0.02 0.01 0.01 0.01 0.01 0.00 0.00 0.00 0.00 0.00 0.00 0.00 0.00 0.00 0.00 0.00
0.00 0.00 0.00 0.01 0.01 0.01 0.02 0.05 0.08 0.08 0.11 0.14 0.16 0.16 0.21 0.24 0.27 0.27 0.33 0.39 0.39 0.43 0.50 0.56 0.56 0.57 0.53 0.60 0.79 0.79 0.88 0.87 0.74 0.74 0.69 0.69 0.65 0.65 0.62 0.61 0.61 0.58 0.46 0.30 0.30 0.28 0.20 0.12 0.12 0.14 0.09 0.05 0.07 0.07 0.09 0.15 0.15 0.15 0.12 0.08 0.08 0.05 0.05 0.07 0.07 0.07 0.06 0.05 0.05 0.05 0.03 0.02 0.01 0.01 0.00 0.00 0.00 0.00 0.00 0.00 0.00 0.00 0.00 0.00 0.00 0.00
0.00 0.00 0.00 0.00 0.00 0.01 0.03 0.05 0.06 0.06 0.10 0.12 0.15 0.15 0.19 0.22 0.25 0.25 0.30 0.37 0.37 0.43 0.48 0.56 0.56 0.54 0.57 0.59 0.70 0.70 0.76 0.82 0.75 0.75 0.67 0.70 0.63 0.63 0.59 0.59 0.59 0.58 0.48 0.36 0.36 0.33 0.26 0.21 0.21 0.23 0.23 0.14 0.11 0.11 0.10 0.11 0.11 0.12 0.14 0.13 0.13 0.09 0.05 0.05 0.05 0.04 0.04 0.04 0.05 0.05 0.03 0.02 0.01 0.01 0.00 0.00 0.00 0.00 0.00 0.00 0.00 0.00 0.00 0.00 0.00 0.00
0.00 0.00 0.00 0.00 0.00 0.01 0.02 0.04 0.05 0.05 0.09 0.11 0.13 0.13 0.17 0.20 0.23 0.23 0.28 0.35 0.35 0.43 0.48 0.53 0.53 0.56 0.56 0.62 0.64 0.64 0.66 0.76 0.78 0.78 0.78 0.80 0.77 0.77 0.66 0.62 0.62 0.56 0.55 0.52 0.52 0.49 0.37 0.28 0.28 0.27 0.24 0.16 0.17 0.17 0.15 0.12 0.12 0.10 0.11 0.11 0.11 0.08 0.07 0.07 0.07 0.05 0.04 0.05 0.04 0.04 0.04 0.03 0.02 0.02 0.01 0.02 0.00 0.00 0.00 0.00 0.00 0.00 0.00 0.00 0.00 0.00
0.00 0.00 0.00 0.00 0.00 0.01 0.01 0.03 0.05 0.05 0.08 0.11 0.12 0.12 0.16 0.15 0.19 0.19 0.20 0.25 0.25 0.29 0.40 0.46 0.46 0.47 0.50 0.52 0.58 0.58 0.54 0.61 0.71 0.71 0.76 0.75 0.79 0.79 0.72 0.67 0.67 0.55 0.48 0.51 0.51 0.45 0.43 0.33 0.33 0.31 0.20 0.18 0.23 0.23 0.19 0.11 0.11 0.09 0.09 0.09 0.09 0.07 0.07 0.08 0.08 0.07 0.07 0.06 0.06 0.06 0.04 0.02 0.03 0.03 0.02 0.03 0.01 0.01 0.00 0.00 0.00 0.00 0.00 0.00 0.00 0.00
0.00 0.00 0.00 0.00 0.00 0.00 0.00 0.01 0.02 0.02 0.04 0.07 0.10 0.10 0.11 0.13 0.18 0.18 0.20 0.23 0.23 0.27 0.37 0.45 0.45 0.48 0.50 0.47 0.51 0.51 0.46 0.51 0.61 0.61 0.67 0.66 0.73 0.73 0.69 0.61 0.61 0.56 0.44 0.42 0.42 0.35 0.40 0.43 0.43 0.37 0.37 0.20 0.19 0.19 0.22 0.18 0.18 0.12 0.10 0.09 0.09 0.07 0.07 0.08 0.08 0.08 0.07 0.06 0.05 0.05 0.04 0.04 0.05 0.05 0.04 0.05 0.03 0.03 0.01 0.01 0.01 0.00 0.00 0.00 0.00 0.00
0.00 0.00 0.00 0.00 0.00 0.00 0.00 0.01 0.02 0.02 0.04 0.06 0.08 0.08 0.10 0.12 0.16 0.16 0.20 0.23 0.23 0.27 0.35 0.45 0.45 0.47 0.50 0.46 0.44 0.44 0.42 0.41 0.47 0.47 0.56 0.54 0.65 0.65 0.65 0.57 0.57 0.52 0.51 0.44 0.44 0.33 0.28 0.31 0.31 0.31 0.35 0.26 0.24 0.24 0.20 0.15 0.15 0.12 0.13 0.10 0.10 0.09 0.09 0.09 0.09 0.07 0.06 0.06 0.06 0.06 0.06 0.05 0.05 0.05 0.05 0.05 0.03 0.03 0.01 0.01 0.01 0.00 0.00 0.00 0.00 0.00
0.00 0.00 0.00 0.00 0.00 0.00 0.00 0.01 0.01 0.01 0.03 0.05 0.08 0.08 0.09 0.11 0.14 0.14 0.18 0.22 0.22 0.26 0.32 0.43 0.43 0.44 0.44 0.48 0.47 0.47 0.46 0.44 0.39 0.39 0.38 0.39 0.46 0.46 0.57 0.53 0.53 0.46 0.44 0.42 0.42 0.38 0.33 0.29 0.29 0.35 0.34 0.30 0.27 0.27 0.23 0.15 0.15 0.16 0.16 0.15 0.15 0.15 0.13 0.12 0.12 0.10 0.07 0.07 0.07 0.07 0.05 0.05 0.05 0.05 0.04 0.03 0.03 0.03 0.02 0.03 0.03 0.01 0.01 0.00 0.00 0.00
0.00 0.00 0.00 0.00 0.00 0.00 0.00 0.00 0.01 0.01 0.03 0.05 0.07 0.07 0.06 0.08 0.11 0.11 0.13 0.16 0.16 0.19 0.24 0.28 0.28 0.35 0.43 0.46 0.47 0.47 0.44 0.44 0.42 0.42 0.40 0.40 0.40 0.40 0.48 0.46 0.46 0.39 0.40 0.42 0.42 0.42 0.43 0.47 0.47 0.55 0.55 0.37 0.42 0.42 0.32 0.25 0.25 0.22 0.20 0.18 0.18 0.19 0.15 0.13 0.13 0.10 0.08 0.08 0.06 0.06 0.05 0.05 0.05 0.05 0.04 0.03 0.05 0.05 0.04 0.03 0.03 0.02 0.01 0.00 0.00 0.00